�������l�o���
Date,Time,MP-1(��Sv/h),MP-2(��Sv/h),MP-3(��Sv/h),MP-4(��Sv/h),MP-5(��Sv/h),MP-6(��Sv/h),MP-7(��Sv/h),MP-8(��Sv/h),����,����(m/s),���J
2024/04/15,00:00,0.500,0.766,0.483,0.937,0.675,0.316,0.548,0.515,�k�k��,5.6,��
2024/04/15,00:10,0.503,0.767,0.482,0.939,0.676,0.315,0.548,0.513,�k�k��,4.7,��
2024/04/15,00:20,0.502,0.768,0.485,0.939,0.675,0.314,0.549,0.514,�k�k��,4.7,��
2024/04/15,00:30,0.501,0.768,0.481,0.939,0.675,0.315,0.549,0.513,�k�k��,4.0,��
2024/04/15,00:40,0.504,0.767,0.484,0.939,0.674,0.314,0.548,0.515,�k�k��,3.6,��
2024/04/15,00:50,0.502,0.767,0.483,0.939,0.674,0.315,0.549,0.515,�k�k��,3.6,��
2024/04/15,01:00,0.502,0.767,0.482,0.939,0.676,0.314,0.548,0.516,�k,4.3,��
2024/04/15,01:10,0.502,0.768,0.483,0.939,0.674,0.315,0.549,0.514,�k�k��,2.3,��
2024/04/15,01:20,0.503,0.767,0.483,0.940,0.674,0.315,0.549,0.515,���k��,2.2,��
2024/04/15,01:30,0.503,0.766,0.482,0.938,0.675,0.314,0.548,0.514,�k��,2.0,��
2024/04/15,01:40,0.501,0.766,0.484,0.939,0.676,0.315,0.548,0.515,���k��,0.8,��
2024/04/15,01:50,0.502,0.767,0.485,0.939,0.675,0.314,0.548,0.514,���k��,1.1,��
2024/04/15,02:00,0.502,0.769,0.483,0.938,0.675,0.315,0.549,0.514,���k��,0.9,��
2024/04/15,02:10,0.502,0.766,0.483,0.938,0.674,0.313,0.549,0.513,�k�k��,0.6,��
2024/04/15,02:20,0.501,0.766,0.482,0.938,0.674,0.315,0.549,0.514,�k�k��,3.4,��
2024/04/15,02:30,0.503,0.766,0.481,0.937,0.676,0.315,0.548,0.514,�k�k��,4.1,��
2024/04/15,02:40,0.502,0.767,0.482,0.939,0.675,0.315,0.546,0.514,�k�k��,4.0,��
2024/04/15,02:50,0.500,0.767,0.482,0.940,0.674,0.313,0.547,0.514,�k�k��,4.6,��
2024/04/15,03:00,0.501,0.767,0.484,0.940,0.674,0.314,0.547,0.515,�k�k��,4.8,��
2024/04/15,03:10,0.501,0.769,0.482,0.938,0.673,0.313,0.548,0.514,�k�k��,5.9,��
2024/04/15,03:20,0.501,0.766,0.482,0.940,0.675,0.314,0.548,0.514,�k�k��,5.4,��
2024/04/15,03:30,0.500,0.766,0.483,0.937,0.674,0.314,0.547,0.514,�k��,5.3,��
2024/04/15,03:40,0.500,0.765,0.483,0.937,0.674,0.313,0.548,0.514,�k�k��,5.2,��
2024/04/15,03:50,0.502,0.767,0.483,0.939,0.673,0.314,0.547,0.513,�k�k��,4.5,��
2024/04/15,04:00,0.501,0.765,0.483,0.939,0.675,0.315,0.547,0.514,�k�k��,4.0,��
2024/04/15,04:10,0.502,0.767,0.483,0.937,0.674,0.313,0.548,0.514,�k�k��,3.7,��
2024/04/15,04:20,0.500,0.766,0.482,0.939,0.674,0.314,0.550,0.515,�k��,3.3,��
2024/04/15,04:30,0.500,0.765,0.483,0.939,0.674,0.314,0.547,0.514,�k��,3.4,��
2024/04/15,04:40,0.503,0.764,0.483,0.937,0.674,0.314,0.547,0.513,�k��,2.2,��
2024/04/15,04:50,0.501,0.765,0.481,0.938,0.673,0.314,0.548,0.515,�k�k��,2.0,��
2024/04/15,05:00,0.501,0.765,0.482,0.940,0.673,0.313,0.548,0.514,�k��,2.3,��
2024/04/15,05:10,0.501,0.767,0.481,0.939,0.675,0.314,0.547,0.514,�k�k��,2.0,��
2024/04/15,05:20,0.501,0.766,0.481,0.936,0.674,0.313,0.550,0.514,�k��,1.9,��
2024/04/15,05:30,0.500,0.765,0.482,0.939,0.674,0.313,0.548,0.514,�k�k��,1.5,��
2024/04/15,05:40,0.502,0.765,0.483,0.937,0.672,0.313,0.549,0.514,�k�k��,1.5,��
2024/04/15,05:50,0.500,0.766,0.483,0.939,0.672,0.312,0.547,0.513,�k�k��,0.8,��
2024/04/15,06:00,0.499,0.765,0.482,0.939,0.674,0.313,0.547,0.513,��쐼,0.9,��
2024/04/15,06:10,0.502,0.768,0.482,0.938,0.674,0.314,0.548,0.515,���쐼,1.7,��
2024/04/15,06:20,0.502,0.767,0.480,0.939,0.673,0.313,0.549,0.514,�쐼,1.2,��
2024/04/15,06:30,0.502,0.767,0.483,0.938,0.672,0.315,0.547,0.514,-,CALM,��
2024/04/15,06:40,0.502,0.765,0.483,0.937,0.674,0.313,0.548,0.513,-,CALM,��
2024/04/15,06:50,0.502,0.766,0.482,0.941,0.673,0.313,0.549,0.516,��,0.8,��
2024/04/15,07:00,0.501,0.768,0.484,0.938,0.676,0.314,0.548,0.515,��,0.9,��
2024/04/15,07:10,0.504,0.768,0.484,0.938,0.675,0.313,0.550,0.515,-,CALM,��
2024/04/15,07:20,0.502,0.767,0.484,0.939,0.677,0.313,0.548,0.515,�쓌,1.1,��
2024/04/15,07:30,0.503,0.767,0.483,0.939,0.673,0.312,0.549,0.515,�쓌,1.5,��
2024/04/15,07:40,0.502,0.765,0.483,0.939,0.675,0.312,0.549,0.516,�쓌,1.7,��
2024/04/15,07:50,0.503,0.765,0.482,0.940,0.673,0.312,0.549,0.517,�쓌,2.3,��
2024/04/15,08:00,0.505,0.767,0.485,0.940,0.674,0.312,0.549,0.516,�쓌,2.6,��
2024/04/15,08:10,0.502,0.763,0.483,0.938,0.676,0.311,0.548,0.515,�쓌,2.9,��
2024/04/15,08:20,0.503,0.766,0.482,0.939,0.675,0.310,0.547,0.515,���쓌,1.7,��
2024/04/15,08:30,0.502,0.765,0.483,0.941,0.675,0.312,0.548,0.514,�쓌,2.0,��
2024/04/15,08:40,0.501,0.766,0.484,0.937,0.672,0.313,0.545,0.513,�쓌,1.9,��
2024/04/15,08:50,0.501,0.766,0.483,0.940,0.673,0.311,0.548,0.514,�쓌,2.3,��
2024/04/15,09:00,0.502,0.767,0.482,0.941,0.674,0.313,0.547,0.512,�쓌,1.9,��
2024/04/15,09:10,0.501,0.767,0.483,0.940,0.675,0.313,0.547,0.513,�쓌,2.6,��
2024/04/15,09:20,0.502,0.768,0.483,0.940,0.676,0.312,0.548,0.513,�쓌,3.0,��
2024/04/15,09:30,0.502,0.766,0.483,0.941,0.674,0.313,0.547,0.514,���쓌,2.6,��
2024/04/15,09:40,0.502,0.765,0.482,0.941,0.676,0.313,0.547,0.513,���쓌,2.9,��
2024/04/15,09:50,0.502,0.768,0.483,0.940,0.673,0.313,0.548,0.512,���쓌,3.3,��
2024/04/15,10:00,0.501,0.767,0.483,0.943,0.675,0.313,0.546,0.513,�쓌,3.0,��
2024/04/15,10:10,0.502,0.769,0.485,0.942,0.674,0.312,0.548,0.513,���쓌,3.6,��
2024/04/15,10:20,0.503,0.767,0.483,0.939,0.671,0.314,0.547,0.513,���쓌,2.5,��
2024/04/15,10:30,0.502,0.768,0.483,0.942,0.677,0.313,0.548,0.512,��,1.5,��
2024/04/15,10:40,0.504,0.769,0.483,0.942,0.675,0.311,0.547,0.513,�쓌,1.7,��
2024/04/15,10:50,0.501,0.768,0.481,0.940,0.674,0.313,0.547,0.514,�쓌,2.3,��
2024/04/15,11:00,0.503,0.769,0.482,0.941,0.676,0.313,0.549,0.513,��쓌,1.5,��
2024/04/15,11:10,0.503,0.767,0.484,0.941,0.675,0.312,0.547,0.513,�쓌,3.0,��
2024/04/15,11:20,0.503,0.770,0.483,0.940,0.675,0.313,0.549,0.513,�쓌,2.3,��
2024/04/15,11:30,0.503,0.769,0.484,0.943,0.676,0.313,0.549,0.513,�쓌,1.7,��
2024/04/15,11:40,0.502,0.771,0.484,0.944,0.676,0.313,0.547,0.513,���쓌,2.3,��
2024/04/15,11:50,0.502,0.769,0.484,0.945,0.677,0.314,0.548,0.514,�쓌,2.0,��
2024/04/15,12:00,0.502,0.764,0.483,0.940,0.676,0.314,0.548,0.512,�쓌,2.3,��
2024/04/15,12:10,0.503,0.769,0.482,0.941,0.677,0.313,0.548,0.514,�쓌,3.0,��
2024/04/15,12:20,0.502,0.769,0.482,0.941,0.677,0.312,0.548,0.514,���쓌,3.3,��
2024/04/15,12:30,0.504,0.769,0.482,0.940,0.678,0.313,0.547,0.514,��,2.0,��
2024/04/15,12:40,0.503,0.769,0.484,0.942,0.678,0.314,0.548,0.515,��,1.7,��
2024/04/15,12:50,0.503,0.768,0.485,0.942,0.679,0.313,0.548,0.514,��,2.3,��
2024/04/15,13:00,0.504,0.771,0.486,0.941,0.677,0.314,0.550,0.516,���쓌,1.9,��
2024/04/15,13:10,0.504,0.768,0.483,0.942,0.678,0.313,0.548,0.515,�쓌,2.0,��
2024/04/15,13:20,0.503,0.768,0.483,0.941,0.678,0.313,0.549,0.515,��,1.9,��
2024/04/15,13:30,0.504,0.770,0.484,0.941,0.679,0.313,0.550,0.515,�쓌,2.3,��
2024/04/15,13:40,0.504,0.767,0.484,0.942,0.677,0.314,0.548,0.514,���쓌,2.6,��
2024/04/15,13:50,0.503,0.771,0.484,0.944,0.677,0.314,0.550,0.514,�쓌,3.3,��
2024/04/15,14:00,0.503,0.770,0.486,0.940,0.678,0.312,0.549,0.515,�쓌,2.6,��
2024/04/15,14:10,0.504,0.772,0.484,0.943,0.679,0.313,0.551,0.514,�쓌,3.1,��
2024/04/15,14:20,0.503,0.770,0.486,0.944,0.679,0.312,0.550,0.514,�쓌,3.9,��
2024/04/15,14:30,0.503,0.770,0.484,0.942,0.681,0.313,0.551,0.516,��쓌,4.2,��
2024/04/15,14:40,0.503,0.768,0.485,0.941,0.678,0.313,0.551,0.514,�쓌,4.4,��
2024/04/15,14:50,0.502,0.769,0.484,0.943,0.679,0.313,0.550,0.513,��쓌,3.5,��
2024/04/15,15:00,0.502,0.770,0.485,0.945,0.678,0.313,0.552,0.515,��쓌,3.8,��
2024/04/15,15:10,0.504,0.771,0.485,0.945,0.678,0.314,0.551,0.516,��쓌,3.9,��
2024/04/15,15:20,0.504,0.770,0.485,0.941,0.678,0.313,0.550,0.513,��쓌,4.1,��
2024/04/15,15:30,0.503,0.769,0.484,0.943,0.680,0.314,0.551,0.515,��쓌,3.9,��
2024/04/15,15:40,0.503,0.772,0.483,0.943,0.679,0.313,0.550,0.514,�쓌,3.5,��
2024/04/15,15:50,0.503,0.770,0.485,0.942,0.679,0.313,0.550,0.515,��쓌,3.0,��
2024/04/15,16:00,0.504,0.770,0.484,0.940,0.679,0.313,0.551,0.514,��쓌,3.7,��
2024/04/15,16:10,0.503,0.770,0.485,0.940,0.680,0.313,0.551,0.513,��쓌,2.3,��
2024/04/15,16:20,0.503,0.771,0.484,0.942,0.679,0.313,0.550,0.514,��쓌,2.6,��
2024/04/15,16:30,0.505,0.768,0.483,0.942,0.679,0.314,0.551,0.513,��쓌,2.6,��
2024/04/15,16:40,0.502,0.771,0.484,0.941,0.678,0.314,0.549,0.514,��쓌,3.4,��
2024/04/15,16:50,0.505,0.772,0.484,0.940,0.679,0.312,0.552,0.513,�쓌,2.6,��
2024/04/15,17:00,0.504,0.770,0.485,0.941,0.680,0.316,0.551,0.514,��,1.2,��
2024/04/15,17:10,0.501,0.770,0.484,0.942,0.679,0.314,0.550,0.512,��쓌,3.5,��
2024/04/15,17:20,0.503,0.771,0.485,0.943,0.679,0.315,0.550,0.514,��쓌,3.9,��
2024/04/15,17:30,0.501,0.771,0.485,0.943,0.679,0.316,0.550,0.513,��쓌,3.0,��
2024/04/15,17:40,0.503,0.773,0.483,0.944,0.678,0.316,0.549,0.515,��쓌,4.6,��
2024/04/15,17:50,0.503,0.773,0.483,0.946,0.678,0.315,0.548,0.516,��쓌,5.1,��
2024/04/15,18:00,0.503,0.772,0.483,0.945,0.678,0.316,0.550,0.516,��쓌,4.3,��
2024/04/15,18:10,0.505,0.772,0.486,0.946,0.680,0.316,0.549,0.514,��쓌,4.8,��
2024/04/15,18:20,0.505,0.773,0.486,0.946,0.678,0.315,0.550,0.516,��쓌,4.2,��
2024/04/15,18:30,0.503,0.773,0.486,0.946,0.678,0.315,0.549,0.515,��쓌,4.8,��
2024/04/15,18:40,0.505,0.774,0.488,0.943,0.680,0.316,0.551,0.516,��,2.3,��
2024/04/15,18:50,0.506,0.773,0.487,0.945,0.680,0.315,0.551,0.515,��,1.7,��
2024/04/15,19:00,0.505,0.773,0.484,0.945,0.681,0.314,0.553,0.514,��,4.7,��
2024/04/15,19:10,0.504,0.772,0.485,0.944,0.681,0.316,0.551,0.515,��,5.1,��
2024/04/15,19:20,0.505,0.774,0.485,0.944,0.681,0.315,0.552,0.516,��,5.0,��
2024/04/15,19:30,0.504,0.772,0.485,0.944,0.678,0.315,0.551,0.516,��,5.0,��
2024/04/15,19:40,0.505,0.772,0.486,0.944,0.681,0.315,0.550,0.515,��,4.7,��
2024/04/15,19:50,0.505,0.772,0.486,0.946,0.682,0.314,0.552,0.514,��,5.3,��
2024/04/15,20:00,0.504,0.772,0.486,0.946,0.680,0.314,0.549,0.515,��,5.6,��
2024/04/15,20:10,0.504,0.770,0.484,0.945,0.680,0.314,0.551,0.516,��쓌,5.0,��
2024/04/15,20:20,0.505,0.771,0.486,0.945,0.680,0.315,0.550,0.514,��쓌,4.6,��
2024/04/15,20:30,0.502,0.773,0.485,0.944,0.681,0.316,0.551,0.514,��,4.7,��
2024/04/15,20:40,0.504,0.772,0.487,0.945,0.681,0.315,0.549,0.515,��쓌,4.4,��
2024/04/15,20:50,0.504,0.772,0.485,0.945,0.680,0.315,0.550,0.514,��,4.1,��
2024/04/15,21:00,0.504,0.772,0.485,0.946,0.680,0.315,0.550,0.514,��,4.7,��
2024/04/15,21:10,0.504,0.771,0.487,0.946,0.681,0.316,0.550,0.516,��,5.3,��
2024/04/15,21:20,0.504,0.771,0.485,0.945,0.680,0.316,0.550,0.516,��,4.8,��
2024/04/15,21:30,0.505,0.772,0.485,0.945,0.681,0.313,0.551,0.516,��,4.9,��
2024/04/15,21:40,0.505,0.774,0.486,0.944,0.683,0.316,0.549,0.516,��,4.7,��
2024/04/15,21:50,0.504,0.774,0.486,0.945,0.683,0.315,0.549,0.515,��,4.6,��
2024/04/15,22:00,0.505,0.770,0.486,0.946,0.682,0.314,0.551,0.514,��,4.4,��
2024/04/15,22:10,0.505,0.771,0.485,0.944,0.681,0.315,0.550,0.515,��,5.0,��
2024/04/15,22:20,0.505,0.773,0.484,0.946,0.681,0.315,0.550,0.514,��,4.4,��
2024/04/15,22:30,0.505,0.772,0.486,0.945,0.681,0.314,0.550,0.514,��,4.4,��
2024/04/15,22:40,0.505,0.772,0.485,0.946,0.680,0.314,0.550,0.514,��쓌,5.1,��
2024/04/15,22:50,0.504,0.772,0.486,0.944,0.682,0.315,0.549,0.514,��쓌,5.0,��
2024/04/15,23:00,0.505,0.772,0.486,0.945,0.682,0.315,0.549,0.516,��,4.9,��
2024/04/15,23:10,0.505,0.772,0.485,0.945,0.679,0.316,0.549,0.514,��,4.6,��
2024/04/15,23:20,0.504,0.774,0.487,0.943,0.680,0.315,0.548,0.516,��,4.6,��
2024/04/15,23:30,0.503,0.771,0.485,0.943,0.681,0.315,0.548,0.516,��,4.3,��
2024/04/15,23:40,0.503,0.771,0.486,0.945,0.680,0.315,0.548,0.516,��,3.8,��
2024/04/15,23:50,0.503,0.773,0.485,0.946,0.681,0.315,0.549,0.515,��,3.8,��
